Weather History for Lee's Summit, MO

Change the Weather History Date:

Tuesday, February 26, 2013

  Actual Average (KMKC) Record (KMKC)
Temperature  
Mean Temperature 32 °F -  
Max Temperature 33 °F 44 °F 71 °F (1999)
Min Temperature 30 °F 27 °F 10 °F (2002)
Degree Days  
Heating Degree Days 34    
Moisture  
Dew Point 29 °F    
Average Humidity 90    
Maximum Humidity 96    
Minimum Humidity 81    
Precipitation  
Precipitation 0.18 in - - ()
Sea Level Pressure  
Sea Level Pressure 29.69 in    
Wind  
Wind Speed 18 mph (NNW)    
Max Wind Speed 25 mph    
Max Gust Speed 36 mph    
Visibility 3 miles    
Events Fog , Snow    
Averages and records for this station are not official NWS values.
T = Trace of Precipitation, MM = Missing Value Source: NWS Daily Summary

Daily Weather History Graph

Daily Weather History Graph

Search for Another Location

Airport:

Trip Planner

Search our weather history database for the weather conditions in past years. The results will help you decide how hot, cold, wet, or windy it might be!

Date:

Astronomy

Feb. 26, 2013 Rise Set
Actual Time 6:53 AM CST 6:07 PM CST
Civil Twilight 6:27 AM CST 6:34 PM CST
Nautical Twilight 5:56 AM CST 7:05 PM CST
Astronomical Twilight 5:25 AM CST 7:36 PM CST
Moon 7:23 PM CST (2/26) 6:57 AM CST (2/26)
Length of Visible Light 12h 07m
Length of Day
11h 13m
Full, 99% of the Moon is Illuminated
Feb 26
Full
Mar 4
Last Quarter
Mar 11
New
Mar 19
First Quarter
Mar 27
Full

Hourly Weather History & Observations

Time (CST) Temp. Windchill Dew Point Humidity Pressure Visibility Wind Dir Wind Speed Gust Speed Precip Events Conditions
12:53 AM 33.1 °F 21.2 °F 30.9 °F 92% 29.64 in 0.8 mi NNE 20.7 mph 31.1 mph 0.02 in Snow Light Snow
1:48 AM 33.8 °F 22.5 °F 30.2 °F 87% 29.59 in 1.0 mi NNE 19.6 mph - 0.03 in Snow Light Snow
1:53 AM 33.1 °F 21.2 °F 30.9 °F 92% 29.61 in 1.0 mi NNE 20.7 mph 28.8 mph 0.03 in Snow Light Snow
2:31 AM 32.0 °F 19.5 °F 30.2 °F 93% 29.57 in 0.8 mi North 21.9 mph 29.9 mph 0.02 in Snow Light Snow
2:53 AM 32.0 °F 19.2 °F 30.9 °F 96% 29.59 in 0.8 mi North 23.0 mph 33.4 mph 0.03 in Snow Light Snow
3:53 AM 32.0 °F 19.2 °F 30.9 °F 96% 29.57 in 0.5 mi North 23.0 mph 31.1 mph 0.04 in Fog , Snow Snow
4:53 AM 32.0 °F 19.2 °F 30.9 °F 96% 29.56 in 0.5 mi North 23.0 mph 31.1 mph 0.02 in Fog , Snow Snow
5:53 AM 32.0 °F 19.2 °F 30.9 °F 96% 29.56 in 0.5 mi North 23.0 mph 33.4 mph 0.02 in Fog , Snow Snow
6:53 AM 32.0 °F 18.9 °F 30.0 °F 92% 29.57 in 0.5 mi North 24.2 mph 35.7 mph 0.01 in Fog , Snow Snow
7:20 AM 32.0 °F 18.9 °F 30.2 °F 93% 29.54 in 0.2 mi North 24.2 mph 34.5 mph 0.01 in Fog , Snow Snow
7:53 AM 32.0 °F 18.6 °F 30.0 °F 92% 29.56 in 0.5 mi North 25.3 mph 35.7 mph 0.01 in Fog , Snow Snow
8:02 AM 32.0 °F 19.2 °F 30.2 °F 93% 29.54 in 0.2 mi North 23.0 mph 32.2 mph 0.00 in Fog , Snow Snow
8:35 AM 32.0 °F 18.9 °F 30.2 °F 93% 29.55 in 0.5 mi North 24.2 mph 31.1 mph 0.00 in Fog , Snow Light Snow
8:53 AM 32.0 °F 19.5 °F 30.0 °F 92% 29.58 in 0.5 mi North 21.9 mph 31.1 mph 0.00 in Fog , Snow Light Snow
9:25 AM 32.0 °F 19.5 °F 30.2 °F 93% 29.56 in 1.2 mi North 21.9 mph 29.9 mph 0.00 in Snow Light Snow
9:53 AM 32.0 °F 19.2 °F 30.0 °F 92% 29.59 in 1.5 mi North 23.0 mph 29.9 mph 0.00 in Snow Light Snow
10:30 AM 32.0 °F 19.2 °F 30.2 °F 93% 29.57 in 2.0 mi North 23.0 mph 31.1 mph 0.00 in Snow Light Snow
10:43 AM 33.8 °F 22.2 °F 30.2 °F 87% 29.57 in 4.0 mi North 20.7 mph 26.5 mph 0.00 in Snow Light Snow
10:53 AM 33.1 °F 21.2 °F 28.9 °F 85% 29.60 in 5.0 mi North 20.7 mph 28.8 mph 0.00 in   Overcast
11:34 AM 33.8 °F 22.8 °F 28.4 °F 81% 29.59 in 5.0 mi North 18.4 mph 27.6 mph 0.00 in   Overcast
11:53 AM 33.1 °F 21.9 °F 28.9 °F 85% 29.62 in 4.0 mi North 18.4 mph 25.3 mph 0.00 in Snow Light Snow
12:53 PM 33.1 °F 22.6 °F 28.9 °F 85% 29.64 in 8.0 mi North 16.1 mph - 0.00 in   Overcast
1:53 PM 33.1 °F 23.0 °F 28.9 °F 85% 29.64 in 7.0 mi North 15.0 mph - N/A   Overcast
2:53 PM 33.1 °F 22.2 °F 28.0 °F 82% 29.66 in 7.0 mi North 17.3 mph 24.2 mph N/A   Overcast
3:53 PM 33.1 °F 23.0 °F 28.0 °F 82% 29.69 in 7.0 mi North 15.0 mph - N/A   Overcast
4:49 PM 33.8 °F 24.3 °F 28.4 °F 81% 29.69 in 6.0 mi NNW 13.8 mph 21.9 mph N/A   Haze
4:53 PM 33.1 °F 22.2 °F 28.0 °F 82% 29.71 in 6.0 mi NNW 17.3 mph 21.9 mph N/A   Haze
5:26 PM 33.8 °F 23.9 °F 28.4 °F 81% 29.70 in 5.0 mi North 15.0 mph - N/A   Haze
5:50 PM 32.0 °F 22.5 °F 28.4 °F 87% 29.71 in 2.0 mi NNW 12.7 mph - 0.00 in Snow Light Snow
5:53 PM 32.0 °F 21.6 °F 28.9 °F 88% 29.74 in 2.0 mi North 15.0 mph - 0.00 in Snow Light Snow
5:59 PM 32.0 °F 22.5 °F 28.4 °F 87% 29.71 in 1.2 mi North 12.7 mph - 0.00 in Snow Light Snow
6:22 PM 32.0 °F 23.0 °F 28.4 °F 87% 29.72 in 1.5 mi NNW 11.5 mph - 0.00 in Snow Light Snow
6:37 PM 32.0 °F 23.6 °F 28.4 °F 87% 29.73 in 2.5 mi NNW 10.4 mph - 0.00 in Snow Light Snow
6:53 PM 32.0 °F 24.8 °F 28.9 °F 88% 29.77 in 3.0 mi NNW 8.1 mph - 0.00 in Snow Light Snow
7:38 PM 30.2 °F 21.9 °F 28.4 °F 93% 29.76 in 3.0 mi NNW 9.2 mph - 0.00 in Snow Light Snow
7:53 PM 32.0 °F 23.6 °F 28.0 °F 85% 29.80 in 4.0 mi NNW 10.4 mph - 0.00 in Snow Light Snow
8:31 PM 32.0 °F 24.2 °F 28.4 °F 87% 29.78 in 2.5 mi NW 9.2 mph - 0.00 in Snow Light Snow
8:51 PM 30.2 °F 22.6 °F 28.4 °F 93% 29.80 in 2.5 mi WNW 8.1 mph - 0.00 in Snow Light Snow
8:53 PM 30.9 °F 23.5 °F 28.9 °F 92% 29.83 in 2.0 mi WNW 8.1 mph - 0.00 in Snow Light Snow
8:56 PM 30.2 °F 22.6 °F 28.4 °F 93% 29.80 in 1.8 mi WNW 8.1 mph - 0.00 in Snow Light Snow
9:23 PM 30.2 °F 21.9 °F 28.4 °F 93% 29.81 in 2.0 mi WNW 9.2 mph - 0.00 in Snow Light Snow
9:30 PM 30.2 °F 21.3 °F 28.4 °F 93% 29.81 in 2.5 mi WNW 10.4 mph - 0.00 in Snow Light Snow
9:38 PM 30.2 °F 20.8 °F 28.4 °F 93% 29.81 in 2.0 mi WNW 11.5 mph - 0.00 in Snow Light Snow
9:48 PM 30.2 °F 21.3 °F 28.4 °F 93% 29.82 in 2.0 mi WNW 10.4 mph - 0.00 in Snow Light Snow
9:49 PM 30.9 °F 22.2 °F 28.9 °F 92% 29.85 in 2.0 mi WNW 10.4 mph - 0.00 in Snow Light Snow
9:57 PM 30.2 °F 22.6 °F 28.4 °F 93% 29.82 in 2.5 mi WNW 8.1 mph - 0.00 in Snow Light Snow
10:49 PM 30.2 °F 21.3 °F 28.4 °F 93% 29.83 in 3.0 mi WNW 10.4 mph - 0.00 in Snow Light Snow
11:34 PM 30.2 °F 20.2 °F 28.4 °F 93% 29.83 in 3.0 mi NW 12.7 mph - 0.00 in Snow Light Snow
11:45 PM 30.2 °F 21.3 °F 28.4 °F 93% 29.83 in 2.5 mi NW 10.4 mph - 0.00 in Snow Light Snow
11:53 PM 30.9 °F 22.2 °F 28.0 °F 89% 29.86 in 2.5 mi NW 10.4 mph - 0.00 in Snow Light Snow